Aérodrome :
LOGIN :

S'inscrire | Disclaimer

   EN    FR    IT 

 










Légende :    VFR   VFR Marginal   IFR   IFR Intensif   IFR Très Intensif
Visi : 
Plafond : 
>= 8 km
>= 3000ft
5 à 8 km
1000 à 3000 ft
1500m à 5 km
500 à 1000 ft
800 à 1500m
200 à 500 ft
< 800m
< 200 ft
Symboles :   Orages  Brouillard  Fortes neiges  Fortes précipitations  Vent > 20 kt
SIGMETs :   Divers  Orages  Givrage  Turbulence  Onde Orograph.  Cendres Volcan.







- Altitude de l'aérodrome : 779 ft
- Code IATA : CMF
- Voir les cartes d'approche


LFLB - Chambery / Aix-Les-Bains

DERNIER METAR :
  • 161530Z AUTO 01002KT CAVOK 14/M01 Q1028 NOSIG

METARs EXPIRÉS :
  • 161500Z AUTO 35003KT CAVOK 14/01 Q1028 NOSIG
  • 161430Z AUTO 35003KT 320V020 CAVOK 13/00 Q1028 NOSIG
  • 161400Z AUTO 35005KT CAVOK 12/M00 Q1028 NOSIG
  • 161330Z AUTO 35005KT CAVOK 11/01 Q1029 NOSIG
  • 161300Z AUTO 35005KT CAVOK 11/02 Q1029 NOSIG

TAF TAF LFLB
Valide du 16 à 12h jusqu'au 17 à 12h UTC


161100Z 1612/1712 VRB03KT CAVOK
PROB30
TEMPO 1703/1708 4000 BR
Pas de NOTAMs connus pour ce terrain.



MET'MAP, la Météo Aéronautique d'un coup d'oeil ! - Copyright ORBIFLY Décembre 2007 - Disclaimer

ORBIFLY MET'MAP TEAM :

Programmation & Développement : Alexandra Zaïnal
Conception & Développement : Baudouin d'Aumeries
Co-Programmation & Développement : Marc-Olivier Méhu
Soutien technique & logistique : Manuel Goepfert

Contact : metmap@orbifly.com




SOURCES & CREDITS :

   NOAA